This demonstration page uses our WeatherBlox Daily Observations layout. Learn more.

Left ArrowRight Arrow

41.12389, -100.76542

Hourly Observations for July 10, 2022

Temp ( °F °C ) Dew Point ( °F °C ) Humidity (%) Winds ( mph kmh ) Pressure ( in mb ) Visibility ( mi km ) Precip ( " mm )
12:53 am 00:53 Clear 81 27.2 67 19.4 62 62 SE 12 19 29.97 1015 10 16 0.00 0.00
1:53 am 01:53 Clear 79 26.1 67 19.4 67 67 SSE 8 13 29.96 1015 10 16 0.00 0.00
2:53 am 02:53 Clear 78 25.6 66 18.9 67 67 SSE 10 17 29.95 1014 10 16 0.00 0.00
3:53 am 03:53 Clear 76 24.4 65 18.3 69 69 VRB 6 9 29.94 1014 10 16 0.00 0.00
4:53 am 04:53 Clear 75 23.9 64 17.8 69 69 Calm 29.93 1014 10 16 0.00 0.00
5:53 am 05:53 Clear 74 23.3 64 17.8 71 71 SE 7 11 29.93 1014 10 16 0.00 0.00
6:53 am 06:53 Sunny 74 23.3 63 17.2 69 69 ESE 5 7 29.93 1014 10 16 0.00 0.00
7:53 am 07:53 Sunny 78 25.6 62 16.7 58 58 Calm 29.93 1013 10 16 0.00 0.00
8:53 am 08:53 Sunny 83 28.3 63 17.2 51 51 S 12 19 29.91 1013 10 16 0.00 0.00
9:53 am 09:53 Sunny 88 31.1 63 17.2 43 43 WSW 13 20 29.91 1013 10 16 0.00 0.00
10:53 am 10:53 Sunny 93 33.9 64 17.8 38 38 SW 9 15 29.90 1012 10 16 0.00 0.00
11:53 am 11:53 Sunny 96 35.6 65 18.3 36 36 S 10 17 29.87 1012 10 16 0.00 0.00
12:53 pm 12:53 Sunny 99 37.2 64 17.8 32 32 SW 12 19 29.86 1011 10 16 0.00 0.00
1:53 pm 13:53 Sunny 102 38.9 61 16.1 26 26 SW 14 22 29.84 1011 10 16 0.00 0.00
2:53 pm 14:53 Sunny 100 37.8 67 19.4 34 34 NNW 13 20 29.83 1010 10 16 0.00 0.00
3:53 pm 15:53 Sunny 102 38.9 67 19.4 32 32 NNW 10 17 29.81 1010 10 16 0.00 0.00
4:53 pm 16:53 Sunny 102 38.9 65 18.3 30 30 NNW 7 11 29.79 1009 10 16 0.00 0.00
5:53 pm 17:53 Sunny 100 37.8 64 17.8 31 31 N 12 19 29.79 1009 10 16 0.00 0.00
6:53 pm 18:53 Sunny 96 35.6 65 18.3 36 36 NE 10 17 29.80 1009 10 16 0.00 0.00
7:53 pm 19:53 Sunny 93 33.9 68 20 44 44 NNE 13 20 29.80 1009 10 16 0.00 0.00
8:53 pm 20:53 Sunny 89 31.7 68 20 50 50 N 10 17 29.86 1011 10 16 0.00 0.00
9:10 pm 21:10 Sunny with Nearby Thunderstorms 88 31.1 68 20 52 52 NNE 14 22 29.75 1007 10 16 0.00 0.00
9:31 pm 21:31 Partly Cloudy with Thunderstorms 87 30.6 67 19.4 51 51 W 9 15 29.81 1009 10 16 0.00 0.00
9:53 pm 21:53 Mostly Cloudy with Thunderstorms 80 26.7 71 21.7 74 74 NW 6 9 29.92 1013 9 14 0.03 0.76
10:45 pm 22:45 Mostly Clear with Nearby Thunderstorms 78 25.6 72 22.2 82 82 NE 10 17 29.78 1008 10 16 0.02 0.51
10:53 pm 22:53 Mostly Clear with Light Rain 79 26.1 71 21.7 77 77 NE 14 22 29.83 1010 10 16 0.02 0.51
11:32 pm 23:32 Mostly Cloudy with Nearby Thunderstorms 75 23.9 69 20.6 82 82 E 14 22 29.82 1010 10 16 0.00 0.00
11:53 pm 23:53 Mostly Clear 74 23.3 65 18.3 74 74 ENE 5 7 29.90 1012 10 16 0.00 0.00

Powered by AerisWeather